User: anonymous   Login
Location: Unspecified
(0.0000°N, 0.0000°E)
Time: 22:16:17
(UTC+00:00)
Language:

ONEWEB-0021 - Orbit

View from above orbital plane
View from above orbital plane
View from above satellite
View from above satellite

Ground track
Ground track

The orbit is defined by the following mean orbital elements,

1 45134U          26145.45932689 +.00000000 +00000-0 +15567-2 0 00000
2 45134  87.8854  40.8078 0001869  75.9546 284.1789 13.10375533    06
Epoch (UTC): 25 May 2026 11:01:25
Eccentricity: 0.0001869
inclination: 87.8854°
perigee height: 1220 km
apogee height: 1223 km
right ascension of ascending node: 40.8078°
argument of perigee: 75.9546°
revolutions per day: 13.10375533
mean anomaly at epoch: 284.1789°

The dashed part of the orbit path shows where the satellite is in the earth's shadow,  

DLR